This is the latest recevied weather packets stored in our database for station/object KM4NDN. If no packets are shown the sender has not sent any weather packets the latest 10 day(s).
| Time | Temp. | Humidity | Pressure | Rain* | Wind** | Luminosity | Snow |
|---|---|---|---|---|---|---|---|
| 1778017291 | 10° C | 94% | 1006.7 hPa | 7.11 mm | - | 17 W/m² | - |
| 1778016989 | 10° C | 93% | 1006.2 hPa | 10.16 mm | - | 27 W/m² | - |
| 1778016685 | 10° C | 93% | 1006.3 hPa | 7.87 mm | - | 37 W/m² | - |
| 1778016381 | 10° C | 93% | 1006.6 hPa | 6.6 mm | - | 31 W/m² | - |
| 1778016079 | 10.56° C | 93% | 1006.4 hPa | 3.05 mm | - | 23 W/m² | - |
| 1778015775 | 10.56° C | 92% | 1006.3 hPa | 3.05 mm | - | 30 W/m² | - |
| 1778015473 | 10.56° C | 92% | 1006 hPa | 1.27 mm | - | 50 W/m² | - |
| 1778015169 | 10.56° C | 92% | 1005.9 hPa | 1.78 mm | - | 51 W/m² | - |
| 1778014866 | 10.56° C | 91% | 1005.9 hPa | 1.78 mm | - | 51 W/m² | - |
| 1778014564 | 10.56° C | 91% | 1006.2 hPa | 1.27 mm | - | 69 W/m² | - |
| 1778014261 | 11.11° C | 92% | 1006 hPa | 3.05 mm | - | 77 W/m² | - |
| 1778013958 | 10.56° C | 91% | 1006 hPa | 1.78 mm | - | 85 W/m² | - |
| 1778013656 | 11.11° C | 92% | 1006.4 hPa | 1.27 mm | - | 95 W/m² | - |
| 1778013352 | 11.11° C | 91% | 1006.5 hPa | 3.05 mm | - | 94 W/m² | - |
| 1778013050 | 11.11° C | 91% | 1006.5 hPa | 0 mm | - | 98 W/m² | - |
| 1778012745 | 11.11° C | 91% | 1006.6 hPa | 1.78 mm | - | 108 W/m² | - |
| 1778012441 | 11.67° C | 92% | 1006.4 hPa | 3.05 mm | - | 109 W/m² | - |
| 1778012138 | 11.67° C | 93% | 1006.5 hPa | 3.05 mm | - | 95 W/m² | - |
| 1778011836 | 12.22° C | 93% | 1006.5 hPa | 1.78 mm | - | 74 W/m² | - |
| 1778011534 | 12.22° C | 93% | 1006.7 hPa | 3.05 mm | - | 71 W/m² | - |
| 1778011230 | 12.78° C | 93% | 1006.6 hPa | 3.05 mm | - | 58 W/m² | - |
| 1778010926 | 12.78° C | 93% | 1006.8 hPa | 1.27 mm | - | 43 W/m² | - |
| 1778010624 | 12.78° C | 93% | 1006.6 hPa | 3.05 mm | - | 63 W/m² | - |
| 1778010321 | 12.78° C | 93% | 1006.8 hPa | 3.05 mm | - | 37 W/m² | - |
| 1778010016 | 13.33° C | 93% | 1006.8 hPa | 4.83 mm | - | 39 W/m² | - |
* Rain latest hour (hover to see other rain measurements)
** Current wind speed in m/s (hover to see current wind gust speed)